Location: Brompton
(51.4000°N, 0.5333°E)
Time: 16:41:51
(UTC+00:00)

Meteor 1-18 Rocket - Pass Details

Date: 11 May 2021
Orbit: 837 x 909 km, 81.2° (Epoch: 23 June)

Event Time Altitude Azimuth Distance (km) Brightness Sun altitude
Exits shadow 23:16:09 35° 195° (SSW) 1,347 4.8 -20.0°
Maximum altitude 23:18:38 86° 280° (W) 859 4.2 -20.0°
Drops below altitude 10° 23:24:16 10° 12° (NNE) 2,473 7.7 -20.2°
Sets 23:26:40 0° 13° (NNE) 3,408 8.6 -20.2°
